GW4239 Weather Reports


time (UTC)temp
C
wind
direction
speed
KPH
gust
KPH
rain 1hr
cm
rain 24hr
cm
rain mn
cm
humidity
%
barometer
mb
20260504045917 5 0.0 0.0 0.00 0.00 0.00 77 1017.3
20260504044917 5 0.0 0.0 0.00 0.00 0.00 76 1017.3
20260504043917 5 0.0 0.0 0.00 0.00 0.00 75 1017.2
20260504042917 5 0.0 0.0 0.00 0.00 0.00 75 1017.2
20260504041917 5 0.0 0.0 0.00 0.00 0.00 75 1017.1
20260504040917 5 0.0 0.0 0.00 0.00 0.00 74 1017.1
20260504035917 5 0.0 0.0 0.00 0.00 0.00 73 1017.0
20260504034917 6 0.0 0.0 0.00 0.00 0.00 72 1017.0
20260504033937 6 0.0 0.0 0.00 0.00 0.00 70 1016.9
20260504032917 6 0.0 0.0 0.00 0.00 0.00 70 1016.8
20260504031937 6 0.0 0.0 0.00 0.00 0.00 70 1016.8
20260504030917 6 0.0 0.0 0.00 0.00 0.00 70 1016.9
20260504025917 6 0.0 0.0 0.00 0.00 0.00 71 1016.9
20260504024917 6 0.0 0.0 0.00 0.00 0.00 69 1016.9
20260504023917 6 0.0 0.0 0.00 0.00 0.00 68 1017.0
20260504022917 6 0.0 0.0 0.00 0.00 0.00 66 1016.9
20260504021917 7 0.0 0.0 0.00 0.00 0.00 65 1016.9
20260504020917 7 0.0 0.0 0.00 0.00 0.00 62 1016.8
20260504015917 7 0.0 0.0 0.00 0.00 0.00 62 1016.6
20260504014917 8 269 1.6 1.6 0.00 0.00 0.00 61 1016.7
20260504013917 8 269 0.0 3.2 0.00 0.00 0.00 58 1016.4
20260504012917 8 269 1.6 1.6 0.00 0.00 0.00 58 1016.0
20260504011917 8 269 1.6 1.6 0.00 0.00 0.00 56 1015.9
20260504010917 9 0.0 0.0 0.00 0.00 0.00 54 1016.0
20260504005917 10 0.0 0.0 0.00 0.00 0.00 52 1015.7
20260504004917 10 269 1.6 1.6 0.00 0.00 0.00 50 1015.6
20260504003917 11 0.0 0.0 0.00 0.00 0.00 49 1015.5
20260504002917 11 269 1.6 3.2 0.00 0.00 0.00 47 1015.4
20260504001917 12 0.0 0.0 0.00 0.00 0.00 45 1015.2
20260504000916 12 269 1.6 1.6 0.00 0.00 0.00 42 1015.2
20260503235917 13 269 1.6 3.2 0.00 0.00 0.00 39 1015.3
20260503234937 14 269 0.0 3.2 0.00 0.00 0.00 37 1015.0
20260503233917 15 0.0 0.0 0.00 0.00 0.00 34 1015.0
20260503232917 15 259 1.6 1.6 0.00 0.00 0.00 33 1015.1
20260503231919 15 278 1.6 4.8 0.00 0.00 0.00 30 1015.2
20260503230917 15 264 1.6 3.2 0.00 0.00 0.00 31 1015.2
20260503225917 15 321 1.6 4.8 0.00 0.00 0.00 29 1015.2
20260503224917 16 325 4.8 6.4 0.00 0.00 0.00 27 1015.2
20260503223917 16 314 1.6 3.2 0.00 0.00 0.00 28 1015.2
20260503222917 16 277 1.6 3.2 0.00 0.00 0.00 26 1015.4
20260503221937 16 321 6.4 8.0 0.00 0.00 0.00 25 1015.3
20260503220917 16 261 4.8 8.0 0.00 0.00 0.00 25 1015.5
20260503215937 16 317 4.8 14.5 0.00 0.00 0.00 24 1015.5
20260503214917 16 243 8.0 14.5 0.00 0.00 0.00 25 1015.6
20260503213916 16 292 3.2 4.8 0.00 0.00 0.00 27 1015.7
20260503212917 16 340 6.4 9.7 0.00 0.00 0.00 27 1015.8
20260503211917 16 261 3.2 4.8 0.00 0.00 0.00 27 1015.8
20260503210917 16 244 9.7 16.1 0.00 0.00 0.00 29 1015.8
20260503205917 16 330 6.4 16.1 0.00 0.00 0.00 25 1015.8
20260503204917 17 243 3.2 8.0 0.00 0.00 0.00 28 1016.1
20260503203917 17 244 8.0 19.3 0.00 0.00 0.00 29 1016.1
20260503202917 17 254 3.2 12.9 0.00 0.00 0.00 31 1016.3
20260503201917 16 327 1.6 12.9 0.00 0.00 0.00 28 1016.5
20260503200917 16 358 8.0 11.3 0.00 0.00 0.00 30 1016.7
20260503195917 16 323 4.8 8.0 0.00 0.00 0.00 29 1016.8
20260503194937 16 251 8.0 17.7 0.00 0.00 0.00 30 1016.9
20260503193917 16 298 1.6 12.9 0.00 0.00 0.00 31 1016.9
20260503192916 16 247 3.2 6.4 0.00 0.00 0.00 29 1017.2
20260503191937 16 223 6.4 11.3 0.00 0.00 0.00 32 1017.3
20260503190917 16 296 3.2 6.4 0.00 0.00 0.00 31 1017.6
20260503185937 15 244 6.4 12.9 0.00 0.00 0.00 32 1017.7
20260503184917 15 307 8.0 19.3 0.00 0.00 0.00 33 1017.8
20260503183917 15 279 4.8 9.7 0.00 0.00 0.00 31 1017.8
20260503182917 15 109 3.2 6.4 0.00 0.00 0.00 31 1018.0
20260503181917 15 99 3.2 6.4 0.00 0.00 0.00 34 1018.3
20260503180937 15 220 4.8 8.0 0.00 0.00 0.00 35 1018.5
20260503175938 14 211 8.0 11.3 0.00 0.00 0.00 36 1018.5
20260503174917 14 211 8.0 11.3 0.00 0.00 0.00 35 1018.6
20260503173917 13 221 6.4 14.5 0.00 0.00 0.00 35 1018.7
20260503172917 13 250 4.8 11.3 0.00 0.00 0.00 37 1018.6
20260503171916 13 275 9.7 12.9 0.00 0.00 0.00 37 1018.9
20260503170917 13 346 6.4 11.3 0.00 0.00 0.00 36 1019.1
20260503150937 10 92 4.8 12.9 0.00 0.00 0.00 41 1020.2
20260503130916 7 0 6.4 9.7 0.00 0.00 0.00 58 1020.3
20260503080937 2 0.0 0.0 0.00 0.00 0.00 83 1017.4
20260503072937 2 293 1.6 3.2 0.00 0.00 0.00 85 1017.0